• Join FlightAware (Why Join?)
  • Login
  • US Flag 
01:53AM EST


 

Airport Tracker/Info


-or-


 

Live Flight TrackerFlight Track Log ✈ N824AY ✈ 25-Apr-2012 ✈ KIND - KMEM

Flight Track Log - Related Links

Times and Time Zones

All times are in EDT time to prevent confusion due to time zone crossing. See the N824AY flight status page for this flight to view local times or setup timezone preferences in your user account.

Time Position Orientation Groundspeed Altitude Reporting Facility
EDT Latitude Longitude Course Direction KTS MPH feet Rate Location/Type
06:26PM 39.7167 -86.2833 38° Northeast 169 194 1,200  Level Indianapolis TRACON
06:26PM 39.7500 -86.2500 72° East 185 213 2,300 1,444 Climbing Indianapolis TRACON
06:27PM 39.7667 -86.1833 123° Southeast 217 250 3,800 1,450 Climbing Indianapolis TRACON
06:28PM 39.7333 -86.1167 153° Southeast 250 288 5,200 1,676 Climbing Indianapolis TRACON
06:29PM 39.6678 -86.0736 209° Southwest 280 322 6,900 2,270 Climbing Indianapolis Center
06:30PM 39.6083 -86.1172 220° Southwest 266 306 9,400 2,400 Climbing Indianapolis Center
06:31PM 39.5508 -86.1797 231° Southwest 279 321 11,700 2,150 Climbing Indianapolis Center
06:32PM 39.5031 -86.2561 255° West 293 337 13,700 1,700 Climbing Indianapolis Center
06:33PM 39.4844 -86.3442 259° West 277 319 15,100 1,500 Climbing Indianapolis Center
06:34PM 39.4694 -86.4458 224° Southwest 288 331 16,700 1,150 Climbing Indianapolis Center
06:35PM 39.4028 -86.5292 212° Southwest 307 353 17,400 1,000 Climbing Indianapolis Center
06:36PM 39.3133 -86.6006 213° Southwest 357 411 18,700 1,250 Climbing Indianapolis Center
06:37PM 39.2258 -86.6744 225° Southwest 387 445 19,900 1,100 Climbing Indianapolis Center
06:38PM 39.1525 -86.7703 257° West 387 445 20,900 950 Climbing Indianapolis Center
06:39PM 39.1303 -86.8953 257° West 373 429 21,800 750 Climbing Indianapolis Center
06:40PM 39.1078 -87.0253 220° Southwest 367 422 22,400 700 Climbing Indianapolis Center
06:41PM 39.0236 -87.1175 204° Southwest 372 428 23,200 750 Climbing Indianapolis Center
06:42PM 38.9175 -87.1789 218° Southwest 401 461 23,900 750 Climbing Indianapolis Center
06:43PM 38.8292 -87.2678 223° Southwest 409 471 24,700 750 Climbing Indianapolis Center
06:44PM 38.7489 -87.3650 222° Southwest 414 476 25,400 650 Climbing Indianapolis Center
06:45PM 38.6664 -87.4617 201° Southwest 409 471 26,000 300 Climbing Indianapolis Center
06:46PM 38.5561 -87.5169 197° South 409 471 26,000  Level Indianapolis Center
06:47PM 38.4378 -87.5633 197° South 426 490 26,000  Level Indianapolis Center
06:48PM 38.3172 -87.6097 197° South 447 514 26,000  Level Indianapolis Center
06:49PM 38.1947 -87.6586 199° South 452 520 26,000  Level Indianapolis Center
06:50PM 38.0758 -87.7100 200° South 457 526 26,000  Level Indianapolis Center
06:52PM 37.8433 -87.8181 209° Southwest 465 535 26,000  Level Memphis Center
06:53PM 37.7364 -87.8922 205° Southwest 459 528 26,000  Level Memphis Center
06:54PM 37.6211 -87.9589 206° Southwest 453 521 26,000  Level Memphis Center
06:55PM 37.5119 -88.0247 207° Southwest 448 516 26,000  Level Memphis Center
06:56PM 37.4008 -88.0961 204° Southwest 448 516 26,000  Level Memphis Center
06:57PM 37.2853 -88.1619 205° Southwest 448 516 26,000  Level Memphis Center
06:58PM 37.1719 -88.2275 205° Southwest 448 516 26,000  Level Memphis Center
06:59PM 37.0625 -88.2928 206° Southwest 448 516 26,000  Level Memphis Center
07:00PM 36.9533 -88.3581 205° Southwest 441 507 26,000  Level Memphis Center
07:01PM 36.8439 -88.4231 205° Southwest 441 507 26,000  Level Memphis Center
07:02PM 36.7344 -88.4878 205° Southwest 441 507 26,000  Level Memphis Center
07:03PM 36.6228 -88.5522 205° Southwest 441 507 26,000  Level Memphis Center
07:04PM 36.5028 -88.6222 205° Southwest 436 502 26,000  Level Memphis Center
07:05PM 36.3911 -88.6864 205° Southwest 441 507 26,000  Level Memphis Center
07:06PM 36.2858 -88.7478 212° Southwest 435 501 26,000 -500 Level Memphis Center
07:07PM 36.1844 -88.8269 212° Southwest 430 495 25,000 -1,750 Descending Memphis Center
07:08PM 36.0792 -88.9086 213° Southwest 442 509 22,500 -2,450 Descending Memphis Center
07:09PM 35.9800 -88.9872 212° Southwest 442 509 20,100 -2,450 Descending Memphis Center
07:10PM 35.8828 -89.0631 212° Southwest 431 496 17,600 -2,250 Descending Memphis Center
07:11PM 35.7917 -89.1336 213° Southwest 418 481 15,600 -2,100 Descending Memphis Center
07:12PM 35.7028 -89.2042 212° Southwest 400 460 13,400 -2,000 Descending Memphis Center
07:13PM 35.6283 -89.2614 212° Southwest 373 429 11,600 -1,700 Descending Memphis Center
07:14PM 35.5453 -89.3261 222° Southwest 355 409 10,000 -793 Descending Memphis Center
07:15PM 35.4792 -89.3983 230° Southwest 335 386 10,000 -200 Level Memphis Center
07:16PM 35.4256 -89.4781 237° Southwest 302 348 9,600 -1,160 Descending Memphis Center
07:17PM 35.3886 -89.5472 241° Southwest 264 304 7,700 -1,850 Descending Memphis Center
07:18PM 35.3556 -89.6189 239° Southwest 250 288 5,900 -1,350 Descending Memphis Center
07:19PM 35.3247 -89.6828 238° Southwest 232 267 5,000 -450 Descending Memphis Center
07:20PM 35.2917 -89.7464 256° West 232 267 5,000  Level Memphis Center
07:21PM 35.2772 -89.8153 262° West 221 254 5,000  Level Memphis Center
07:22PM 35.2692 -89.8892 230° Southwest 221 254 5,000 -59 Level Memphis Center
07:23PM 35.2500 -89.9167 231° Southwest 225 259 4,900 -900 Descending Anchorage Center
07:24PM 35.2167 -89.9667 180° South 195 224 3,500 -1,231 Descending Anchorage Center
07:25PM 35.1667 -89.9667 180° South 176 203 2,500 -923 Descending Anchorage Center
07:26PM 35.1167 -89.9667 180° South 160 184 1,700 -718 Descending Anchorage Center
07:27PM 35.0833 -89.9667 180° South 130 150 1,100 -621 Descending Anchorage Center